Flag for Chile Weather past 2 weeks in Valdivia, Chile

Now
46 °F

Fog.


Feels Like: 46 °F
Forecast: 46 / 60 °F
Wind: 2 mph from East

Location: Temuco Airport


UV Index: 0 (Low)

Visibility: 2 mi


Pressure: 30.07 "Hg

Humidity: 93%

Dew point: 45 °F

Location of ValdiviaLocation

Historic Weather in Valdivia

°F

Valdivia temperature yesterday

Maximum temperature yesterday: 61 °F (at 2:00 PM)
Minimum temperature yesterday: 46 °F (at 10:00 PM)
Average temperature yesterday: 56 °F

Past Weeks' High & Low Weather Summary

 TemperatureHumidityPressure
High75 °F (Apr 2, 3:00 PM)100% (Apr 1, 7:00 AM)30.39 "Hg (Apr 1, 7:00 AM)
Low32 °F (Apr 13, 6:00 AM)41% (Apr 2, 3:00 PM)29.92 "Hg (Apr 6, 5:00 AM)
Average52 °F86%30.10 "Hg
* Reported Apr 1 7:00 AM — Apr 16 7:00 AM, Valdivia, Weather by CustomWeather, © 2014

Note: Actual official high and low records may vary slightly from our data, if they occured in-between our weather recording intervals... More about our weather records

Advertising

Historic Weather Conditions — Data for Previous 24 hours

 ConditionsComfort  
Time TempWeatherWind HumidityBarometerVisibility
7:00 AM
Apr 16
50 °FSprinkles. Passing clouds.2 mph94%30.07 "HgN/A
6:00 AM50 °FOvercast.2 mph94%30.07 "HgN/A
5:00 AM50 °FOvercast.5 mph94%30.04 "HgN/A
4:00 AM50 °FOvercast.3 mph88%30.04 "HgN/A
3:00 AM50 °FPassing clouds.5 mph94%30.04 "HgN/A
2:00 AM48 °FPassing clouds.5 mph94%30.04 "HgN/A
1:00 AM50 °FPassing clouds.3 mph94%30.04 "HgN/A
12:00 AM46 °FPassing clouds.2 mph93%30.04 "HgN/A
11:00 PM
Apr 15
46 °FClear.3 mph100%30.01 "Hg10 mi
10:00 PM46 °FPassing clouds.1 mph93%30.01 "HgN/A
8:00 PM54 °FPassing clouds.5 mph82%29.98 "HgN/A
7:00 PM59 °FPartly cloudy.8 mph68%29.98 "HgN/A
6:00 PM61 °FBroken clouds.7 mph68%29.98 "HgN/A
5:00 PM61 °FBroken clouds.8 mph68%29.95 "HgN/A
4:00 PM61 °FBroken clouds.12 mph68%29.95 "HgN/A
3:00 PM61 °FPartly sunny.9 mph77%29.95 "HgN/A
2:00 PM61 °FMore clouds than sun.3 mph88%29.98 "HgN/A
1:00 PM59 °FMostly cloudy.5 mph94%29.98 "HgN/A
12:00 PM57 °FMostly cloudy.5 mph100%29.98 "HgN/A
11:00 AM57 °FDrizzle. Low clouds.3 mph100%29.98 "Hg1 mi
10:00 AM55 °FDrizzle. Low clouds.3 mph100%29.98 "Hg1 mi
9:00 AM55 °FOvercast.No wind94%29.98 "Hg5 mi
8:00 AM54 °FPartly sunny.1 mph100%29.98 "HgN/A
Weather by CustomWeather, © 2014

See weather overview